[[{"header":{"parameterUnit":"m.s-1","parameterCategory":1,"la1":30.2991,"la2":30.254,"lo1":-89.0895,"lo2":-89.0444,"dy":0.0017,"dx":0.0017,"nx":28,"ny":28,"refTime":"2024-02-25T09:00:00:Z","depth":0,"parameterNumber":2,"parameterNumberName":"U-component_of_WINDS"},"data":[0,0,0,0,0,0,0,0,0,0,0,0,0,0,0,0,0,0,0,0,0,0,0,0,0,0,0,0,0,0,0,0,0,0,0,0,0,0,0,0,0,0,0,0,0,0,0,0,0,0,0,0,0,0,0,0,0,0,-0.9776,-0.9777,0,-0.981,-0.981,-0.9811,-0.9826,-0.9826,-0.9826,-0.9826,-0.986,-0.986,-0.9861,0,0,0,0,0,0,0,0,0,0,0,0,0,-0.9724,-0.9725,-0.9776,-0.9777,-0.9777,-0.981,-0.981,-0.9811,-0.9826,-0.9826,-0.9826,-0.9826,-0.9859,-0.986,-0.9861,0,0,0,0,0,0,0,0,0,0,0,0,0,-0.9751,-0.9725,-0.9776,-0.9788,-0.979,-0.981,-0.981,-0.9811,-0.9826,-0.9826,-0.9826,-0.9825,-0.9859,-0.986,-0.9862,-0.9872,0,0,-0.9866,-0.9867,0,0,0,0,0,0,0,0,-0.9749,-0.9753,-0.9786,-0.9788,-0.9789,-0.9814,-0.9804,-0.9831,-0.9826,-0.9812,-0.9826,-0.9825,-0.9844,-0.9847,-0.9853,-0.9873,-0.9875,-0.9866,-0.9867,-0.9868,-0.9868,0,0,0,0,0,0,0,-0.9747,-0.9751,-0.979,-0.9787,-0.9788,-0.9792,-0.9796,-0.981,-0.9828,-0.9813,-0.9814,-0.9818,-0.9845,-0.9852,-0.9854,-0.9875,-0.9866,-0.9867,-0.9868,-0.9869,-0.9906,-0.9906,0,0,0,0,0,0,-0.9744,-0.975,-0.9788,-0.9791,-0.9769,-0.9793,-0.9797,-0.9806,-0.9828,-0.9831,-0.9818,-0.9819,-0.985,-0.9853,-0.9856,-0.9869,-0.9868,-0.9869,-0.987,-0.9905,-0.9906,-0.9906,0,0,0,0,0,0,-0.9742,-0.9747,-0.9787,-0.9771,-0.9776,-0.9794,-0.9803,-0.9807,-0.9813,-0.9832,-0.9835,-0.9822,-0.985,-0.9854,-0.9868,-0.987,-0.987,-0.9871,-0.9905,-0.9905,-0.9906,-0.9896,0,0,0,0,0,0,-0.9741,-0.9746,-0.9751,-0.9771,-0.9777,-0.9799,-0.9804,-0.9807,-0.9816,-0.9817,-0.9836,-0.9839,-0.985,-0.9866,-0.9869,-0.9872,-0.9872,-0.9905,-0.9905,-0.9906,-0.9896,-0.9896,-0.9895,0,0,0,0,0,-0.9739,-0.9746,-0.9751,-0.9755,-0.9782,-0.9799,-0.9803,-0.9815,-0.9816,-0.982,-0.9832,-0.9839,-0.9869,-0.9867,-0.9871,-0.9875,-0.9905,-0.9905,-0.9906,-0.9896,-0.9896,-0.9895,0,0,0,0,0,0,-0.9726,-0.9749,-0.9754,-0.9768,-0.9782,-0.9801,-0.9807,-0.9814,-0.9827,-0.9827,-0.9842,-0.9846,-0.9859,-0.9868,-0.9865,-0.9886,-0.9888,-0.9889,-0.9879,-0.9879,-0.9879,-0.9876,-0.9873,0,0,0,0,0,-0.9725,-0.9737,-0.9756,-0.9767,-0.9773,-0.9789,-0.9797,-0.9805,-0.9819,-0.9825,-0.9838,-0.9851,-0.9864,-0.9872,-0.9885,-0.9897,-0.9902,-0.9902,-0.9902,-0.9901,-0.9902,-0.991,-0.991,-0.9907,-0.9907,-0.9907,0,0,-0.9723,-0.9737,-0.9743,-0.9765,-0.9776,-0.9787,-0.9794,-0.9806,-0.9815,-0.9827,-0.9841,-0.9851,-0.9867,-0.988,-0.9887,-0.9888,-0.9904,-0.9902,-0.9901,-0.9902,-0.991,-0.991,-0.991,-0.9907,-0.9907,-0.9907,0,0,-0.9725,-0.9736,-0.9746,-0.9758,-0.9775,-0.9785,-0.9787,-0.9806,-0.9813,-0.9828,-0.9837,-0.9848,-0.987,-0.9881,-0.9889,-0.9895,-0.9901,-0.9898,-0.9897,-0.9904,-0.9904,-0.9904,-0.9907,-0.9907,-0.9899,-0.9899,-0.9899,0,-0.9719,-0.9738,-0.9751,-0.9762,-0.9771,-0.9783,-0.9793,-0.9804,-0.9824,-0.983,-0.9831,-0.9858,-0.987,-0.9886,-0.9888,-0.9894,-0.9897,-0.9896,-0.9903,-0.9904,-0.9904,-0.9906,-0.9907,-0.9899,-0.9899,-0.9899,-0.9899,0,-0.9731,-0.9743,-0.9749,-0.9768,-0.9778,-0.9789,-0.9804,-0.9812,-0.9819,-0.983,-0.9844,-0.9858,-0.9874,-0.9879,-0.9886,-0.9896,-0.9897,-0.99,-0.9903,-0.9904,-0.9906,-0.9907,-0.9898,-0.9898,-0.9898,-0.9898,0,0,-0.9725,-0.9752,-0.9754,-0.9763,-0.9782,-0.9792,-0.9803,-0.9819,-0.9826,-0.9839,-0.9849,-0.9867,-0.9871,-0.988,-0.9889,-0.9895,-0.9899,-0.9898,-0.9899,-0.9898,-0.9911,-0.9908,-0.9909,-0.9903,-0.9904,-0.9904,-0.991,0,-0.973,-0.9751,-0.9763,-0.9779,-0.979,-0.9802,-0.9811,-0.9824,-0.9834,-0.9845,-0.9856,-0.9869,-0.9873,-0.9879,-0.9885,-0.9897,-0.9902,-0.9897,-0.9913,-0.9913,-0.9908,-0.991,-0.9907,-0.9911,-0.9911,-0.9911,-0.9911,0,-0.9738,-0.9751,-0.9768,-0.9786,-0.9792,-0.98,-0.9816,-0.9826,-0.9841,-0.9848,-0.9859,-0.9867,-0.988,-0.9881,-0.9898,-0.9894,-0.9902,-0.9908,-0.9909,-0.9911,-0.9912,-0.9912,-0.9913,-0.9914,-0.9912,-0.9912,-0.9912,0,-0.9732,-0.9754,-0.9768,-0.9775,-0.9796,-0.9802,-0.9812,-0.9826,-0.9835,-0.9848,-0.9854,-0.9869,-0.9877,-0.9888,-0.99,-0.99,-0.9916,-0.9918,-0.9922,-0.9921,-0.9924,-0.9924,-0.9927,-0.9929,-0.9929,-0.9929,-0.9929,0,-0.9736,-0.9746,-0.9765,-0.9773,-0.9785,-0.9799,-0.981,-0.982,-0.9833,-0.9843,-0.9854,-0.9863,-0.9879,-0.989,-0.9899,-0.9912,-0.9916,-0.9921,-0.9924,-0.992,-0.992,-0.9925,-0.9925,-0.9929,-0.9929,-0.9929,-0.9929,0,-0.9732,-0.9745,-0.976,-0.9779,-0.9784,-0.9792,-0.9808,-0.9817,-0.9827,-0.984,-0.9844,-0.986,-0.9874,-0.9887,-0.9905,-0.9912,-0.9924,-0.9928,-0.9919,-0.9921,-0.9924,-0.9923,-0.993,-0.9932,-0.9933,-0.9933,-0.9933,0,-0.9733,-0.9741,-0.9761,-0.9769,-0.9778,-0.979,-0.9799,-0.9813,-0.9821,-0.9839,-0.9845,-0.986,-0.9872,-0.9893,-0.9907,-0.9921,-0.9925,-0.9926,-0.9927,-0.9923,-0.9925,-0.9924,-0.9925,-0.9926,-0.9926,-0.9926,-0.9925,0,-0.9734,-0.9741,-0.9753,-0.9768,-0.9778,-0.979,-0.9803,-0.9809,-0.9825,-0.9834,-0.9848,-0.9858,-0.9877,-0.9891,-0.9907,-0.9916,-0.9924,-0.9925,-0.9927,-0.9923,-0.9918,-0.9921,-0.9918,-0.9925,-0.9925,-0.9925,-0.9925,-0.9925,-0.9733,-0.9741,-0.9756,-0.9769,-0.978,-0.9792,-0.9801,-0.9812,-0.9824,-0.9841,-0.9848,-0.9862,-0.9877,-0.9899,-0.9908,-0.992,-0.9922,-0.9924,-0.9924,-0.9925,-0.9924,-0.9916,-0.9923,-0.9923,-0.9923,-0.9923,-0.9923,0,-0.9735,-0.9745,-0.9757,-0.9775,-0.9785,-0.9791,-0.9806,-0.9814,-0.9827,-0.984,-0.9852,-0.9868,-0.9882,-0.9897,-0.9911,-0.9918,-0.9921,-0.9921,-0.9921,-0.9923,-0.9921,-0.9919,-0.9918,-0.9918,-0.9918,-0.9918,-0.9918,-0.9918,-0.9737,-0.975,-0.9758,-0.9777,-0.9787,-0.9801,-0.9809,-0.982,-0.983,-0.9848,-0.986,-0.9869,-0.9883,-0.9899,-0.9912,-0.9916,-0.9921,-0.9919,-0.9924,-0.9923,-0.9923,-0.9923,-0.9921,-0.992,-0.992,-0.9925,-0.9925,-0.9925]},{"header":{"parameterUnit":"m.s-1","parameterCategory":1,"la1":30.2991,"la2":30.254,"lo1":-89.0895,"lo2":-89.0444,"dy":0.0017,"dx":0.0017,"nx":28,"ny":28,"refTime":"2024-02-25T09:00:00:Z","depth":0,"parameterNumber":3,"parameterNumberName":"V-component_of_WINDS"},"data":[0,0,0,0,0,0,0,0,0,0,0,0,0,0,0,0,0,0,0,0,0,0,0,0,0,0,0,0,0,0,0,0,0,0,0,0,0,0,0,0,0,0,0,0,0,0,0,0,0,0,0,0,0,0,0,0,0,0,3.5997,3.5998,0,3.6042,3.6043,3.6043,3.6002,3.6001,3.5999,3.5997,3.604,3.6043,3.6045,0,0,0,0,0,0,0,0,0,0,0,0,0,3.5873,3.5876,3.5997,3.5998,3.5998,3.6042,3.6043,3.6043,3.6003,3.6001,3.5999,3.5997,3.6039,3.6042,3.6046,0,0,0,0,0,0,0,0,0,0,0,0,0,3.5923,3.5876,3.5997,3.5983,3.5983,3.6042,3.6043,3.6043,3.6003,3.6001,3.5998,3.5996,3.6038,3.6042,3.6046,3.612,0,0,3.6058,3.606,0,0,0,0,0,0,0,0,3.5921,3.5928,3.5985,3.5984,3.5984,3.6014,3.6014,3.6069,3.6004,3.5995,3.5997,3.5995,3.6033,3.6037,3.6051,3.6122,3.6124,3.6059,3.6061,3.6063,3.6064,0,0,0,0,0,0,0,3.5917,3.5926,3.6015,3.5986,3.5985,3.5974,3.5978,3.6025,3.6027,3.5996,3.5993,3.5999,3.6032,3.6047,3.6052,3.6125,3.6058,3.6062,3.6065,3.6066,3.6259,3.6262,0,0,0,0,0,0,3.5916,3.5923,3.6013,3.6016,3.5945,3.5978,3.5983,3.6007,3.6027,3.6028,3.6001,3.5997,3.6042,3.6047,3.6053,3.6142,3.6063,3.6066,3.6069,3.6256,3.626,3.6263,0,0,0,0,0,0,3.5913,3.5924,3.6012,3.5969,3.5979,3.5983,3.601,3.6009,3.6024,3.6031,3.6031,3.6016,3.604,3.6048,3.6104,3.6143,3.6068,3.6072,3.6253,3.6257,3.6261,3.632,0,0,0,0,0,0,3.591,3.5923,3.5952,3.597,3.5982,3.6063,3.6012,3.6012,3.6031,3.6026,3.6045,3.6046,3.6039,3.6098,3.6108,3.6147,3.6075,3.625,3.6255,3.626,3.6315,3.6326,3.6335,0,0,0,0,0,3.5905,3.5966,3.5954,3.5965,3.6018,3.6065,3.6072,3.6064,3.6035,3.6064,3.6068,3.6045,3.6137,3.6105,3.6115,3.6156,3.6247,3.6254,3.626,3.631,3.6324,3.6335,0,0,0,0,0,0,3.5951,3.5968,3.5955,3.6023,3.6043,3.6058,3.6094,3.6078,3.6106,3.61,3.6087,3.6092,3.6152,3.6159,3.6123,3.6229,3.6187,3.6196,3.6222,3.6235,3.6245,3.6243,3.6078,0,0,0,0,0,3.597,3.6008,3.602,3.6079,3.609,3.6091,3.6111,3.6103,3.6122,3.613,3.6139,3.6158,3.6191,3.6213,3.6244,3.6315,3.6319,3.6349,3.6359,3.6367,3.6375,3.6414,3.6428,3.6283,3.6283,3.6283,0,0,3.6008,3.6021,3.6046,3.6089,3.6103,3.6142,3.6098,3.614,3.6169,3.6136,3.6191,3.6198,3.6218,3.6283,3.6312,3.6291,3.6416,3.6375,3.6382,3.6385,3.6422,3.6435,3.6448,3.6287,3.6286,3.6286,0,0,3.6097,3.6111,3.6163,3.6179,3.6202,3.6202,3.6214,3.6232,3.6236,3.6291,3.6267,3.63,3.6358,3.6374,3.6389,3.6485,3.6466,3.6495,3.6549,3.6587,3.6599,3.6609,3.6644,3.6657,3.6503,3.6503,3.6503,0,3.6141,3.62,3.6191,3.6236,3.6256,3.6229,3.6281,3.6296,3.6328,3.6341,3.6318,3.639,3.6402,3.647,3.6494,3.6507,3.6521,3.6494,3.6598,3.6608,3.6617,3.6651,3.6664,3.6507,3.6506,3.6506,3.6506,0,3.6253,3.6294,3.6333,3.6366,3.639,3.6438,3.6435,3.646,3.645,3.6453,3.6509,3.6522,3.6556,3.6571,3.6561,3.6638,3.6625,3.66,3.6558,3.6635,3.6666,3.6679,3.6512,3.6511,3.6509,3.6509,0,0,3.6373,3.6401,3.6416,3.6431,3.6455,3.6486,3.6532,3.6567,3.6589,3.6611,3.665,3.67,3.6677,3.6695,3.6686,3.6719,3.6796,3.669,3.669,3.671,3.6883,3.6902,3.6917,3.6783,3.6785,3.6787,3.6881,0,3.6464,3.6548,3.6541,3.6619,3.6657,3.6633,3.6673,3.6692,3.6695,3.6727,3.673,3.6766,3.6733,3.6744,3.6775,3.678,3.683,3.6773,3.6819,3.682,3.6816,3.6934,3.6954,3.7043,3.6893,3.6895,3.6897,0,3.6582,3.6611,3.6693,3.6712,3.6728,3.6765,3.6796,3.6827,3.6847,3.6847,3.6868,3.6854,3.69,3.6857,3.692,3.6882,3.69,3.6905,3.6908,3.6912,3.6864,3.6942,3.7071,3.7085,3.6916,3.6914,3.6913,0,3.6663,3.6722,3.6779,3.6792,3.6816,3.6842,3.6853,3.6871,3.6892,3.6919,3.6933,3.6964,3.6981,3.7005,3.7,3.6968,3.7065,3.7021,3.7067,3.7067,3.7089,3.7088,3.7223,3.7099,3.7099,3.7098,3.7098,0,3.6766,3.6818,3.6816,3.6851,3.6908,3.69,3.6956,3.6963,3.698,3.7015,3.6995,3.7029,3.7019,3.7052,3.7047,3.7102,3.7109,3.711,3.7109,3.7113,3.7113,3.7125,3.7119,3.7102,3.7101,3.71,3.71,0,3.6867,3.6867,3.6929,3.6946,3.6951,3.6993,3.7007,3.704,3.7042,3.7088,3.7098,3.71,3.7138,3.7135,3.7177,3.7174,3.7241,3.7232,3.7235,3.7234,3.728,3.7276,3.7429,3.7449,3.7311,3.7312,3.7313,0,3.6933,3.6973,3.6995,3.7018,3.7031,3.7069,3.7091,3.7083,3.7107,3.7133,3.7163,3.72,3.7228,3.729,3.7295,3.7327,3.7319,3.737,3.7324,3.7327,3.7321,3.732,3.7324,3.738,3.7381,3.7383,3.7384,0,3.7052,3.705,3.7084,3.7118,3.7145,3.7171,3.7194,3.7214,3.7209,3.7236,3.7276,3.7298,3.7342,3.7378,3.7409,3.7419,3.7401,3.7398,3.7411,3.7416,3.7417,3.7418,3.7262,3.7395,3.7394,3.7393,3.7393,3.7392,3.7138,3.7173,3.7194,3.7232,3.7249,3.7272,3.7304,3.731,3.7344,3.738,3.7373,3.7417,3.7436,3.7476,3.7489,3.7523,3.7504,3.7522,3.7527,3.7532,3.7538,3.7411,3.7528,3.7528,3.7528,3.7527,3.7527,0,3.7257,3.7269,3.7304,3.7339,3.7369,3.735,3.7375,3.7401,3.7441,3.7461,3.749,3.7536,3.7571,3.7579,3.7613,3.7638,3.7631,3.7648,3.7646,3.7649,3.7552,3.7539,3.7653,3.7653,3.7653,3.7653,3.7653,3.7653,3.7322,3.738,3.7381,3.7447,3.7458,3.7503,3.7519,3.754,3.7556,3.7608,3.7638,3.7644,3.7659,3.7694,3.7725,3.7726,3.774,3.776,3.7759,3.7668,3.7656,3.7644,3.7631,3.7763,3.7763,3.7853,3.7854,3.7854]}]]